This is the latest recevied weather packets stored in our database for station/object DM1HF-13. If no packets are shown the sender has not sent any weather packets the latest 10 day(s).
| Time | Temp. | Humidity | Pressure | Rain* | Wind** | Luminosity | Snow |
|---|---|---|---|---|---|---|---|
| 1777903517 | 22.78° C | 45% | 1014.3 hPa | 0 mm | - | 239 W/m² | - |
| 1777903217 | 23.33° C | 44% | 1014.3 hPa | 0 mm | - | 181 W/m² | - |
| 1777902917 | 22.78° C | 46% | 1014.4 hPa | 0 mm | - | 197 W/m² | - |
| 1777902616 | 23.33° C | 45% | 1014.4 hPa | 0 mm | - | 164 W/m² | - |
| 1777902317 | 23.33° C | 44% | 1014.5 hPa | 0 mm | - | 190 W/m² | - |
| 1777902017 | 23.33° C | 45% | 1014.4 hPa | 0 mm | - | 199 W/m² | - |
| 1777901717 | 23.33° C | 44% | 1014.5 hPa | 0 mm | - | 197 W/m² | - |
| 1777901417 | 23.33° C | 44% | 1014.6 hPa | 0 mm | - | 258 W/m² | - |
| 1777901117 | 22.78° C | 46% | 1014.7 hPa | 0 mm | - | 255 W/m² | - |
| 1777900817 | 22.78° C | 47% | 1014.7 hPa | 0 mm | - | 299 W/m² | - |
| 1777900516 | 22.78° C | 46% | 1014.7 hPa | 0 mm | - | 357 W/m² | - |
| 1777900217 | 22.22° C | 48% | 1014.7 hPa | 0 mm | - | 414 W/m² | - |
| 1777899917 | 22.22° C | 48% | 1014.8 hPa | 0 mm | - | 404 W/m² | - |
| 1777899617 | 22.22° C | 48% | 1014.8 hPa | 0 mm | - | 305 W/m² | - |
| 1777899317 | 22.78° C | 47% | 1014.7 hPa | 0 mm | - | 224 W/m² | - |
| 1777899016 | 22.78° C | 49% | 1014.8 hPa | 0 mm | - | 213 W/m² | - |
| 1777898717 | 22.78° C | 46% | 1014.8 hPa | 0 mm | - | 193 W/m² | - |
| 1777898417 | 22.78° C | 46% | 1014.8 hPa | 0 mm | - | 162 W/m² | - |
| 1777898117 | 22.78° C | 46% | 1014.9 hPa | 0 mm | - | 213 W/m² | - |
| 1777897817 | 22.78° C | 47% | 1014.9 hPa | 0 mm | - | 192 W/m² | - |
| 1777897517 | 22.78° C | 45% | 1014.9 hPa | 0 mm | - | 194 W/m² | - |
| 1777897217 | 22.78° C | 48% | 1014.9 hPa | 0 mm | - | 195 W/m² | - |
| 1777896916 | 23.33° C | 46% | 1014.8 hPa | 0 mm | - | 191 W/m² | - |
| 1777896617 | 23.33° C | 45% | 1014.8 hPa | 0 mm | - | 342 W/m² | - |
| 1777896317 | 23.89° C | 43% | 1014.8 hPa | 0 mm | - | 407 W/m² | - |
* Rain latest hour (hover to see other rain measurements)
** Current wind speed in m/s (hover to see current wind gust speed)